Date,TemperatureHighF,TemperatureAvgF,TemperatureLowF,DewpointHighF,DewpointAvgF,DewpointLowF,HumidityHigh,HumidityAvg,HumidityLow,PressureMaxIn,PressureMinIn,WindSpeedMaxMPH,WindSpeedAvgMPH,GustSpeedMaxMPH,PrecipitationSumIn
2013-2-1,50.5,34.8,24.3,26.8,21.2,14.8,83,60,37,30.33,30.21,7,2,9,0.00
2013-2-2,49.8,33.6,20.7,26.0,20.9,14.3,86,62,39,30.33,30.21,6,2,8,0.00
2013-2-3,55.6,40.2,28.9,28.5,22.6,17.9,76,51,35,30.21,30.09,10,3,13,0.00
2013-2-4,53.1,42.1,33.1,26.8,21.4,16.6,54,44,36,30.12,29.91,15,3,15,0.00
2013-2-5,49.1,42.4,33.1,25.7,20.6,16.9,55,42,37,30.00,29.88,15,6,21,0.00
2013-2-6,47.8,38.6,30.9,23.4,19.1,15.8,57,45,38,30.03,29.85,15,6,22,0.00
2013-2-7,39.6,32.4,21.4,23.7,16.7,10.5,72,53,40,30.00,29.85,9,2,12,0.00
2013-2-8,39.0,27.2,15.1,19.9,13.8,8.0,76,59,40,30.09,30.00,10,2,15,0.00
2013-2-9,43.3,28.0,13.8,21.2,14.9,5.9,78,59,41,30.15,30.03,9,2,13,0.00
2013-2-10,44.6,31.0,19.4,25.2,17.0,10.4,79,58,38,30.21,30.12,8,1,10,0.00
2013-2-11,49.3,34.8,18.7,24.7,18.8,11.2,81,54,37,30.24,30.12,9,3,13,0.00
2013-2-12,49.3,37.0,25.3,26.7,22.1,16.3,86,57,38,30.33,30.24,13,4,14,0.00
2013-2-13,48.0,37.0,25.9,26.4,22.6,17.9,84,58,39,30.36,30.27,10,2,11,0.00
2013-2-14,53.1,37.3,24.8,31.5,24.5,20.1,94,63,38,30.42,30.36,9,2,10,0.00
2013-2-15,58.5,37.9,25.3,32.2,25.5,20.1,91,65,36,30.42,30.21,11,2,11,0.00
2013-2-16,56.1,40.3,27.3,29.5,21.5,14.7,87,49,36,30.21,30.06,15,5,17,0.00
2013-2-17,43.3,30.6,16.2,19.4,15.2,10.2,83,55,38,30.12,30.00,10,2,10,0.00
2013-2-18,39.7,30.2,20.3,17.9,14.8,11.4,73,53,40,30.00,29.71,6,2,9,0.00
2013-2-19,41.4,29.2,19.6,19.4,14.6,9.0,74,55,39,29.88,29.65,10,2,11,0.00
2013-2-20,42.6,30.6,18.1,19.4,15.4,8.9,75,55,39,29.97,29.85,10,2,13,0.00
2013-2-21,39.7,33.1,22.8,20.1,17.3,14.5,80,54,40,30.09,29.97,11,3,11,0.00
2013-2-22,45.7,36.7,27.9,27.5,21.3,16.1,85,54,40,30.09,29.82,25,8,29,0.00
2013-2-23,38.3,29.9,19.9,21.9,14.9,10.2,78,55,40,30.27,29.94,14,4,21,0.00
2013-2-24,46.4,32.1,18.1,23.3,16.6,11.0,82,55,38,30.30,30.03,22,4,22,0.00
2013-2-25,43.0,35.0,21.7,28.5,18.1,10.4,77,51,39,30.21,29.97,20,6,24,0.00
2013-2-26,48.9,34.3,17.2,23.7,16.2,9.9,81,50,37,30.24,30.15,13,4,15,0.00
2013-2-27,49.8,39.3,27.0,25.2,17.7,8.4,47,41,38,30.24,30.18,15,5,17,0.00
2013-2-28,57.2,46.1,39.9,33.0,29.4,21.1,72,53,38,30.39,30.18,23,7,23,0.00